Terminal Aerodrome Forecast
Issued by NWS Brownsville, TX

Home | Current Version | Previous Version | Text Only | Print | Product List | Glossary On
Versions: 1 2 3 4 5 6 7 8 9 10 11 12 13 14 15 16 17 18 19 20 21
008
FTUS44 KBRO 210522
TAFBRO
TAF
KBRO 210522Z 2106/2206 00000KT 1/4SM FG VV001
     FM211500 22008KT P6SM SKC
     FM212100 15008KT P6SM SKC=

USA.gov is the U.S. government's official web portal to all federal, state and local government web resources and services.